AUA270A EDDS-LOWW

Flight info

Callsign AUA270A
Flight time 0h 53m
Altitude 31000
Route ABTAL4B ABTAL L173 RIXED Y161 RIDAR Z98 MIQ L605 BIBAG Q104 AKIMA DCT MASUR MASUR3W
Aircraft A320/M-SDE3FGHIRWY/LB1

Departure

Time 2026-05-07 20:41
Airport Stuttgart Airport (EDDS)

Arrival

Time 2026-05-07 21:35
Airport Vienna International Airport (LOWW)
Time Latitude Longitude Altitude Speed Heading
2026-05-07 20:00 48.68872 9.19287 1316 ft 0 kts 344°
2026-05-07 20:25 48.68857 9.19293 1315 ft 4 kts 344°
2026-05-07 20:25 48.68831 9.19305 1315 ft 4 kts 344°
2026-05-07 20:26 48.68810 9.19314 1315 ft 4 kts 358°
2026-05-07 20:26 48.68793 9.19302 1314 ft 4 kts 68°
2026-05-07 20:26 48.68788 9.19281 1315 ft 3 kts 74°
2026-05-07 20:26 48.68793 9.19307 1314 ft 0 kts 74°
2026-05-07 20:29 48.68801 9.19351 1314 ft 8 kts 74°
2026-05-07 20:29 48.68825 9.19478 1312 ft 16 kts 74°
2026-05-07 20:30 48.68860 9.19660 1309 ft 15 kts 72°
2026-05-07 20:30 48.68887 9.19801 1305 ft 15 kts 75°
2026-05-07 20:30 48.68852 9.19887 1300 ft 13 kts 162°
2026-05-07 20:30 48.68822 9.19984 1295 ft 13 kts 68°
2026-05-07 20:31 48.68859 9.20142 1292 ft 18 kts 74°
2026-05-07 20:31 48.68900 9.20353 1287 ft 23 kts 74°
2026-05-07 20:31 48.68948 9.20610 1283 ft 28 kts 73°
2026-05-07 20:31 48.69005 9.20905 1273 ft 30 kts 74°
2026-05-07 20:32 48.69059 9.21196 1266 ft 29 kts 75°
2026-05-07 20:32 48.69114 9.21488 1260 ft 28 kts 74°
2026-05-07 20:32 48.69169 9.21779 1256 ft 27 kts 74°
2026-05-07 20:32 48.69225 9.22065 1250 ft 31 kts 73°
2026-05-07 20:33 48.69276 9.22342 1239 ft 27 kts 74°
2026-05-07 20:33 48.69330 9.22628 1233 ft 29 kts 74°
2026-05-07 20:33 48.69383 9.22906 1228 ft 27 kts 74°
2026-05-07 20:33 48.69439 9.23199 1222 ft 29 kts 74°
2026-05-07 20:34 48.69495 9.23494 1215 ft 29 kts 74°
2026-05-07 20:34 48.69542 9.23737 1210 ft 23 kts 73°
2026-05-07 20:34 48.69579 9.23938 1206 ft 14 kts 75°
2026-05-07 20:34 48.69608 9.24090 1202 ft 11 kts 74°
2026-05-07 20:35 48.69610 9.24157 1200 ft 7 kts 106°
2026-05-07 20:35 48.69588 9.24216 1197 ft 0 kts 118°
2026-05-07 20:37 48.69587 9.24217 1197 ft 1 kts 118°
2026-05-07 20:37 48.69576 9.24248 1196 ft 5 kts 118°
2026-05-07 20:37 48.69552 9.24290 1193 ft 7 kts 147°
2026-05-07 20:38 48.69518 9.24309 1191 ft 0 kts 163°
2026-05-07 20:38 48.69516 9.24309 1191 ft 0 kts 163°
2026-05-07 20:39 48.69503 9.24315 1191 ft 9 kts 163°
2026-05-07 20:39 48.69419 9.24353 1190 ft 8 kts 163°
2026-05-07 20:40 48.69392 9.24338 1191 ft 3 kts 237°
2026-05-07 20:40 48.69390 9.24324 1191 ft 0 kts 257°
2026-05-07 20:40 48.69390 9.24322 1191 ft 1 kts 257°
2026-05-07 20:40 48.69339 9.24049 1196 ft 66 kts 254°
2026-05-07 20:41 48.69146 9.23037 1217 ft 131 kts 254°
2026-05-07 20:41 48.68866 9.21533 1574 ft 152 kts 256°
2026-05-07 20:41 48.68595 9.19992 2306 ft 152 kts 253°
2026-05-07 20:41 48.68279 9.18416 2821 ft 166 kts 253°
2026-05-07 20:42 48.67930 9.16646 3170 ft 189 kts 253°
2026-05-07 20:42 48.67533 9.14613 3510 ft 214 kts 253°
2026-05-07 20:42 48.67084 9.12324 3949 ft 238 kts 253°
2026-05-07 20:42 48.66401 9.10013 4773 ft 245 kts 229°
2026-05-07 20:43 48.64970 9.08666 5698 ft 248 kts 192°
2026-05-07 20:43 48.63259 9.08897 6627 ft 254 kts 156°
2026-05-07 20:43 48.61828 9.10471 7517 ft 259 kts 129°
2026-05-07 20:43 48.61134 9.12987 8380 ft 268 kts 96°
2026-05-07 20:44 48.61273 9.15901 8923 ft 290 kts 78°
2026-05-07 20:44 48.61594 9.18960 9697 ft 299 kts 84°
2026-05-07 20:44 48.61791 9.22134 10394 ft 311 kts 86°
2026-05-07 20:44 48.62019 9.25515 10729 ft 335 kts 79°
2026-05-07 20:45 48.62723 9.28990 11061 ft 356 kts 68°
2026-05-07 20:45 48.63679 9.32502 11731 ft 365 kts 67°
2026-05-07 20:45 48.64675 9.36057 12536 ft 369 kts 66°
2026-05-07 20:45 48.65692 9.39633 13359 ft 372 kts 66°
2026-05-07 20:46 48.66726 9.43250 14134 ft 376 kts 66°
2026-05-07 20:46 48.67768 9.46906 14837 ft 380 kts 66°
2026-05-07 20:46 48.68815 9.50598 15520 ft 384 kts 66°
2026-05-07 20:46 48.69854 9.54294 16198 ft 388 kts 66°
2026-05-07 20:47 48.70912 9.58079 16866 ft 392 kts 66°
2026-05-07 20:47 48.71979 9.61906 17509 ft 397 kts 66°
2026-05-07 20:47 48.73058 9.65785 18169 ft 402 kts 66°
2026-05-07 20:47 48.74148 9.69706 18766 ft 406 kts 66°
2026-05-07 20:48 48.75251 9.73669 19367 ft 410 kts 66°
2026-05-07 20:48 48.76364 9.77667 19974 ft 413 kts 66°
2026-05-07 20:48 48.77482 9.81698 20583 ft 416 kts 66°
2026-05-07 20:48 48.78611 9.85766 21180 ft 420 kts 66°
2026-05-07 20:49 48.79746 9.89859 21759 ft 423 kts 66°
2026-05-07 20:49 48.80887 9.93985 22338 ft 426 kts 66°
2026-05-07 20:49 48.82030 9.98147 22887 ft 429 kts 66°
2026-05-07 20:49 48.83178 10.02346 23441 ft 432 kts 66°
2026-05-07 20:50 48.84239 10.06637 23908 ft 436 kts 73°
2026-05-07 20:50 48.84858 10.11155 24346 ft 439 kts 83°
2026-05-07 20:50 48.84992 10.15801 24737 ft 443 kts 92°
2026-05-07 20:50 48.84681 10.20472 25141 ft 446 kts 97°
2026-05-07 20:51 48.84299 10.25099 25542 ft 449 kts 97°
2026-05-07 20:51 48.83909 10.29871 25950 ft 451 kts 97°
2026-05-07 20:51 48.83458 10.34532 26336 ft 454 kts 102°
2026-05-07 20:51 48.82567 10.39140 26727 ft 456 kts 112°
2026-05-07 20:52 48.81205 10.43474 27107 ft 457 kts 121°
2026-05-07 20:52 48.79397 10.47441 27459 ft 458 kts 131°
2026-05-07 20:52 48.77241 10.51005 27817 ft 459 kts 135°
2026-05-07 20:52 48.75028 10.54524 28178 ft 462 kts 135°
2026-05-07 20:53 48.72808 10.58062 28535 ft 464 kts 135°
2026-05-07 20:53 48.70585 10.61610 28863 ft 466 kts 135°
2026-05-07 20:53 48.68346 10.65184 29165 ft 468 kts 135°
2026-05-07 20:53 48.66098 10.68766 29474 ft 470 kts 135°
2026-05-07 20:54 48.63842 10.72380 29771 ft 473 kts 133°
2026-05-07 20:54 48.61863 10.76294 30045 ft 476 kts 123°
2026-05-07 20:54 48.60279 10.80715 30284 ft 479 kts 114°
2026-05-07 20:54 48.59182 10.85472 30488 ft 481 kts 104°
2026-05-07 20:55 48.58599 10.90453 30768 ft 481 kts 95°
2026-05-07 20:55 48.58439 10.95498 31060 ft 481 kts 92°
2026-05-07 20:55 48.58310 11.00537 31341 ft 481 kts 92°
2026-05-07 20:55 48.58168 11.05575 31619 ft 481 kts 92°
2026-05-07 20:56 48.58015 11.10621 31893 ft 481 kts 92°
2026-05-07 20:56 48.57867 11.15672 32166 ft 482 kts 92°
2026-05-07 20:56 48.57752 11.20729 32444 ft 482 kts 91°
2026-05-07 20:56 48.57663 11.25784 32730 ft 482 kts 91°
2026-05-07 20:57 48.57584 11.30848 33017 ft 482 kts 91°
2026-05-07 20:57 48.57504 11.35911 33306 ft 483 kts 91°
2026-05-07 20:57 48.57415 11.40986 33585 ft 483 kts 91°
2026-05-07 20:57 48.57319 11.46055 33873 ft 484 kts 92°
2026-05-07 20:58 48.57213 11.51141 34144 ft 484 kts 92°
2026-05-07 20:58 48.57098 11.56225 34380 ft 485 kts 92°
2026-05-07 20:58 48.56775 11.61282 34633 ft 484 kts 101°
2026-05-07 20:58 48.56097 11.66188 34886 ft 484 kts 103°
2026-05-07 20:59 48.55373 11.71144 35143 ft 483 kts 103°
2026-05-07 20:59 48.54644 11.76102 35383 ft 483 kts 103°
2026-05-07 20:59 48.53913 11.81055 35613 ft 483 kts 103°
2026-05-07 20:59 48.53183 11.86003 35844 ft 483 kts 103°
2026-05-07 21:00 48.52454 11.90961 36068 ft 483 kts 103°
2026-05-07 21:00 48.51724 11.95908 36295 ft 483 kts 104°
2026-05-07 21:00 48.50991 12.00847 36528 ft 483 kts 104°
2026-05-07 21:00 48.50253 12.05794 36745 ft 483 kts 104°
2026-05-07 21:01 48.49515 12.10734 36963 ft 482 kts 104°
2026-05-07 21:01 48.48776 12.15670 37075 ft 483 kts 104°
2026-05-07 21:01 48.48034 12.20603 37083 ft 483 kts 104°
2026-05-07 21:02 48.46554 12.30411 37083 ft 483 kts 104°
2026-05-07 21:02 48.45054 12.40267 37081 ft 483 kts 104°
2026-05-07 21:03 48.43547 12.50118 37085 ft 483 kts 104°
2026-05-07 21:03 48.42037 12.59947 37082 ft 483 kts 104°
2026-05-07 21:04 48.40508 12.69796 37083 ft 483 kts 104°
2026-05-07 21:04 48.39841 12.79846 37088 ft 485 kts 88°
2026-05-07 21:05 48.40163 12.89994 37091 ft 486 kts 88°
2026-05-07 21:05 48.40470 13.00156 37093 ft 486 kts 88°
2026-05-07 21:06 48.40753 13.10317 37093 ft 486 kts 88°
2026-05-07 21:06 48.41033 13.20416 37092 ft 486 kts 88°
2026-05-07 21:07 48.41300 13.30589 37094 ft 486 kts 88°
2026-05-07 21:07 48.41745 13.40746 37095 ft 487 kts 85°
2026-05-07 21:08 48.42422 13.50895 37086 ft 487 kts 84°
2026-05-07 21:08 48.43089 13.61043 37087 ft 487 kts 85°
2026-05-07 21:09 48.43670 13.71214 37094 ft 487 kts 86°
2026-05-07 21:09 48.44211 13.81386 37092 ft 488 kts 86°
2026-05-07 21:10 48.44747 13.91503 37090 ft 488 kts 86°
2026-05-07 21:10 48.45300 14.01690 37099 ft 488 kts 86°
2026-05-07 21:11 48.45845 14.11883 37103 ft 488 kts 86°
2026-05-07 21:11 48.46639 14.27174 36588 ft 488 kts 86°
2026-05-07 21:12 48.46899 14.32298 35537 ft 493 kts 86°
2026-05-07 21:12 48.47158 14.37465 34601 ft 495 kts 86°
2026-05-07 21:12 48.47417 14.42644 33552 ft 497 kts 86°
2026-05-07 21:12 48.47675 14.47854 32442 ft 498 kts 86°
2026-05-07 21:13 48.47934 14.53058 31301 ft 498 kts 86°
2026-05-07 21:13 48.48186 14.58232 30308 ft 494 kts 86°
2026-05-07 21:13 48.48436 14.63403 28953 ft 495 kts 85°
2026-05-07 21:13 48.48681 14.68562 27899 ft 491 kts 86°
2026-05-07 21:14 48.48919 14.73659 27123 ft 482 kts 86°
2026-05-07 21:14 48.49151 14.78667 26311 ft 476 kts 86°
2026-05-07 21:14 48.49377 14.83554 25543 ft 471 kts 86°
2026-05-07 21:14 48.49603 14.88450 24775 ft 466 kts 86°
2026-05-07 21:15 48.49825 14.93303 24017 ft 462 kts 86°
2026-05-07 21:15 48.50043 14.98115 23213 ft 458 kts 86°
2026-05-07 21:15 48.50255 15.02884 22495 ft 452 kts 86°
2026-05-07 21:15 48.50464 15.07581 21813 ft 447 kts 86°
2026-05-07 21:16 48.50666 15.12221 21179 ft 441 kts 86°
2026-05-07 21:16 48.50864 15.16805 20564 ft 436 kts 86°
2026-05-07 21:16 48.51060 15.21343 19965 ft 431 kts 86°
2026-05-07 21:16 48.51253 15.25829 19401 ft 427 kts 86°
2026-05-07 21:17 48.51443 15.30280 18824 ft 423 kts 86°
2026-05-07 21:17 48.51630 15.34695 18268 ft 420 kts 86°
2026-05-07 21:17 48.51810 15.39052 17840 ft 414 kts 87°
2026-05-07 21:17 48.51786 15.43365 17427 ft 409 kts 96°
2026-05-07 21:18 48.51263 15.47553 17036 ft 405 kts 107°
2026-05-07 21:18 48.50429 15.51603 16644 ft 403 kts 109°
2026-05-07 21:18 48.49595 15.55626 16261 ft 401 kts 109°
2026-05-07 21:18 48.48770 15.59623 15861 ft 398 kts 108°
2026-05-07 21:19 48.47949 15.63600 15482 ft 396 kts 108°
2026-05-07 21:19 48.47131 15.67562 15110 ft 394 kts 108°
2026-05-07 21:19 48.46320 15.71488 14740 ft 392 kts 109°
2026-05-07 21:19 48.45520 15.75338 14372 ft 388 kts 109°
2026-05-07 21:20 48.44715 15.79199 14014 ft 385 kts 109°
2026-05-07 21:20 48.43913 15.83034 13633 ft 383 kts 109°
2026-05-07 21:20 48.43112 15.86854 13223 ft 381 kts 109°
2026-05-07 21:20 48.42320 15.90646 12827 ft 379 kts 109°
2026-05-07 21:21 48.41529 15.94418 12436 ft 377 kts 109°
2026-05-07 21:21 48.40741 15.98165 12052 ft 374 kts 109°
2026-05-07 21:21 48.39958 16.01887 11662 ft 372 kts 108°
2026-05-07 21:21 48.39181 16.05579 11282 ft 369 kts 108°
2026-05-07 21:22 48.38405 16.09246 10910 ft 367 kts 108°
2026-05-07 21:22 48.37639 16.12847 10537 ft 364 kts 108°
2026-05-07 21:22 48.36874 16.16447 10274 ft 359 kts 108°
2026-05-07 21:22 48.36132 16.19937 10150 ft 342 kts 108°
2026-05-07 21:23 48.35423 16.23270 10020 ft 327 kts 108°
2026-05-07 21:23 48.34744 16.26456 9901 ft 314 kts 108°
2026-05-07 21:23 48.34092 16.29515 9761 ft 302 kts 108°
2026-05-07 21:23 48.33459 16.32483 9460 ft 296 kts 108°
2026-05-07 21:24 48.32828 16.35420 9070 ft 294 kts 108°
2026-05-07 21:24 48.32200 16.38330 8667 ft 293 kts 108°
2026-05-07 21:24 48.31577 16.41228 8270 ft 290 kts 108°
2026-05-07 21:24 48.30958 16.44112 7841 ft 290 kts 108°
2026-05-07 21:25 48.30269 16.46951 7409 ft 289 kts 115°
2026-05-07 21:25 48.29291 16.49566 7021 ft 286 kts 125°
2026-05-07 21:25 48.28039 16.51867 6713 ft 280 kts 135°
2026-05-07 21:25 48.26619 16.53755 6592 ft 266 kts 143°
2026-05-07 21:26 48.25164 16.55390 6370 ft 258 kts 143°
2026-05-07 21:26 48.23734 16.57004 5991 ft 256 kts 143°
2026-05-07 21:26 48.22326 16.58595 5749 ft 249 kts 143°
2026-05-07 21:26 48.20960 16.60140 5441 ft 245 kts 143°
2026-05-07 21:27 48.19604 16.61686 5079 ft 244 kts 140°
2026-05-07 21:27 48.18435 16.63478 4711 ft 244 kts 128°
2026-05-07 21:27 48.17524 16.65623 4319 ft 244 kts 115°
2026-05-07 21:27 48.16782 16.67919 3942 ft 245 kts 115°
2026-05-07 21:28 48.16030 16.70208 3569 ft 245 kts 115°
2026-05-07 21:28 48.15270 16.72504 3197 ft 246 kts 115°
2026-05-07 21:28 48.14509 16.74786 2994 ft 245 kts 116°
2026-05-07 21:28 48.13743 16.77079 3010 ft 247 kts 116°
2026-05-07 21:29 48.12972 16.79389 3007 ft 248 kts 116°
2026-05-07 21:29 48.12110 16.81625 3000 ft 248 kts 132°
2026-05-07 21:29 48.10712 16.83053 3001 ft 244 kts 165°
2026-05-07 21:29 48.09062 16.83195 3006 ft 236 kts 197°
2026-05-07 21:30 48.08017 16.82748 3005 ft 235 kts 203°
2026-05-07 21:30 48.06127 16.81539 2979 ft 209 kts 224°
2026-05-07 21:30 48.05374 16.79889 3002 ft 184 kts 262°
2026-05-07 21:30 48.05234 16.78032 3023 ft 179 kts 269°
2026-05-07 21:31 48.05132 16.76191 2988 ft 176 kts 274°
2026-05-07 21:31 48.05219 16.74995 2961 ft 174 kts 290°
2026-05-07 21:31 48.05728 16.73375 2926 ft 170 kts 298°
2026-05-07 21:31 48.06199 16.71838 2847 ft 157 kts 295°
2026-05-07 21:32 48.06628 16.70390 2654 ft 146 kts 297°
2026-05-07 21:32 48.07086 16.69076 2387 ft 138 kts 298°
2026-05-07 21:32 48.07529 16.67861 2221 ft 131 kts 300°
2026-05-07 21:32 48.07950 16.66669 2015 ft 129 kts 297°
2026-05-07 21:33 48.08333 16.65468 1807 ft 127 kts 297°
2026-05-07 21:33 48.08720 16.64281 1606 ft 127 kts 296°
2026-05-07 21:33 48.09103 16.63098 1424 ft 126 kts 296°
2026-05-07 21:33 48.09489 16.61923 1254 ft 126 kts 295°
2026-05-07 21:34 48.09872 16.60737 1103 ft 127 kts 294°
2026-05-07 21:34 48.10258 16.59546 943 ft 128 kts 292°
2026-05-07 21:34 48.10647 16.58353 783 ft 127 kts 293°
2026-05-07 21:34 48.11034 16.57172 617 ft 122 kts 293°
2026-05-07 21:35 48.11344 16.56212 617 ft 86 kts 296°
2026-05-07 21:35 48.11558 16.55561 612 ft 41 kts 297°
2026-05-07 21:35 48.11689 16.55303 614 ft 30 kts 318°
2026-05-07 21:35 48.11812 16.55151 609 ft 18 kts 341°
2026-05-07 21:36 48.11880 16.55209 615 ft 13 kts 99°
2026-05-07 21:36 48.11833 16.55362 613 ft 19 kts 115°
2026-05-07 21:36 48.11764 16.55572 614 ft 26 kts 117°
2026-05-07 21:36 48.11681 16.55826 615 ft 28 kts 115°
2026-05-07 21:37 48.11591 16.56104 613 ft 31 kts 115°
2026-05-07 21:37 48.11502 16.56376 609 ft 29 kts 116°
2026-05-07 21:37 48.11414 16.56644 618 ft 27 kts 116°
2026-05-07 21:37 48.11379 16.56787 609 ft 11 kts 79°
2026-05-07 21:38 48.11434 16.56848 619 ft 10 kts 25°
2026-05-07 21:38 48.11511 16.56904 612 ft 14 kts 26°
2026-05-07 21:38 48.11588 16.56890 613 ft 13 kts 310°
2026-05-07 21:38 48.11618 16.56791 623 ft 6 kts 279°
2026-05-07 21:39 48.11582 16.56746 609 ft 8 kts 201°
2026-05-07 21:39 48.11561 16.56730 613 ft 1 kts 206°
2026-05-07 21:39 48.11560 16.56730 612 ft 0 kts 206°